Location: Kluczbork
(50.5800°N, 18.1300°E)
Time: 20:37:31
(UTC+01:00)

ISS - Visible Passes

Search period start: 18 January 2018 00:00
Search period end: 28 January 2018 00:00
Orbit: 402 x 407 km, 51.6° (Epoch: 18 January)

Date Brightness Start Highest point End Pass type
(mag) Time Alt. Az. Time Alt. Az. Time Alt. Az.
26 Jan -1.5 18:55:14 10° SSW 18:56:18 17° SSW 18:56:18 17° SSW visible
27 Jan -2.1 18:03:30 10° SSW 18:05:57 20° SE 18:06:18 19° SE visible
27 Jan -0.5 19:38:46 10° WSW 19:38:58 11° WSW 19:38:58 11° WSW visible
